TimeCDT,TemperatureF,Dew PointF,Humidity,Sea Level PressureIn,VisibilityMPH,Wind Direction,Wind SpeedMPH,Gust SpeedMPH,PrecipitationIn,Events,Conditions,WindDirDegrees,DateUTC
12:56 AM,45.0,30.0,56,29.89,10.0,South,18.4,28.8,N/A,,Clear,180,2014-03-30 05:56:00
1:56 AM,44.1,30.0,58,29.86,10.0,South,18.4,-,N/A,,Clear,180,2014-03-30 06:56:00
2:56 AM,46.0,30.9,56,29.84,10.0,South,18.4,26.5,N/A,,Clear,190,2014-03-30 07:56:00
3:56 AM,46.0,30.9,56,29.81,9.0,South,17.3,27.6,N/A,,Clear,190,2014-03-30 08:56:00
4:56 AM,46.0,30.0,54,29.80,10.0,SSW,17.3,25.3,N/A,,Overcast,200,2014-03-30 09:56:00
5:56 AM,46.0,30.0,54,29.81,10.0,SSW,15.0,24.2,N/A,,Mostly Cloudy,200,2014-03-30 10:56:00
6:56 AM,44.1,30.0,58,29.82,10.0,SSW,12.7,-,N/A,,Mostly Cloudy,200,2014-03-30 11:56:00
7:56 AM,45.0,30.0,56,29.83,10.0,SSW,11.5,-,N/A,,Overcast,200,2014-03-30 12:56:00
8:56 AM,46.9,30.9,54,29.83,10.0,SSW,12.7,-,N/A,,Overcast,200,2014-03-30 13:56:00
9:56 AM,51.1,32.0,48,29.82,10.0,SSW,12.7,-,N/A,,Overcast,200,2014-03-30 14:56:00
10:56 AM,53.1,32.0,45,29.81,10.0,South,15.0,-,N/A,,Overcast,190,2014-03-30 15:56:00
11:56 AM,57.9,32.0,37,29.79,10.0,SSW,11.5,-,N/A,,Mostly Cloudy,210,2014-03-30 16:56:00
12:56 PM,61.0,32.0,34,29.77,10.0,South,12.7,-,N/A,,Overcast,190,2014-03-30 17:56:00
1:56 PM,61.0,32.0,34,29.76,10.0,South,11.5,-,N/A,,Overcast,170,2014-03-30 18:56:00
2:56 PM,64.0,32.0,30,29.72,10.0,South,6.9,-,N/A,,Overcast,170,2014-03-30 19:56:00
3:56 PM,66.0,33.1,29,29.71,10.0,SSE,16.1,-,N/A,,Overcast,160,2014-03-30 20:56:00
4:56 PM,66.9,33.1,28,29.68,10.0,SSE,11.5,-,N/A,,Overcast,160,2014-03-30 21:56:00
5:56 PM,66.0,33.1,29,29.67,10.0,SSE,10.4,-,N/A,,Overcast,160,2014-03-30 22:56:00
6:56 PM,64.9,33.1,31,29.65,10.0,South,9.2,-,N/A,,Overcast,170,2014-03-30 23:56:00
7:56 PM,54.0,35.1,49,29.66,10.0,East,8.1,-,N/A,,Overcast,100,2014-03-31 00:56:00
8:56 PM,50.0,36.0,59,29.65,10.0,East,9.2,-,N/A,,Mostly Cloudy,100,2014-03-31 01:56:00
9:56 PM,46.9,36.0,66,29.63,10.0,East,8.1,-,N/A,,Mostly Cloudy,90,2014-03-31 02:56:00
10:56 PM,48.0,37.0,66,29.60,10.0,East,6.9,-,N/A,,Overcast,90,2014-03-31 03:56:00
11:56 PM,55.0,36.0,49,29.58,10.0,SE,10.4,-,N/A,,Overcast,130,2014-03-31 04:56:00